Wind_Speed
10 8 10 12 11 12 12 11 8 5 4 3 2 2 1 1 2 4 5 6 7 8 8 8 8 10 10 9 8 8 7 5 5 6 6 7 7 9 10 12 14 14 16 17 18 18 17 17 16 19 19 16 15 15 15 17 17 18 19 20 20 20 20 20 20 20 19 19 19 19 18 19 19 19 19 19 19 20 20 20 20 20 20 21 22
9 9 10 10 10 12 12 10 7 4 2 2 2 2 1 2 2 4 7 7 7 9 9 9 9 9 10 9 8 9 7 5 5 5 5 5 7 8 9 10 12 13 13 14 16 17 18 18 16 17 18 17 16 15 15 18 18 20 20 21 22 22 21 22 22 21 20 20 19 19 18 18 19 19 19 19 19 19 20 20 20 20 20 21 22
8 8 8 8 10 12 10 7 5 3 2 2 4 3 2 3 3 5 8 7 7 9 9 10 10 10 10 8 8 8 5 5 6 5 5 6 6 8 9 10 11 12 13 13 14 14 16 16 14 15 16 16 16 15 16 19 19 20 21 22 23 23 22 23 23 22 20 20 20 20 19 19 19 19 19 18 19 19 19 19 19 19 20 21 22
7 8 8 7 8 9 8 6 4 2 2 3 5 4 2 3 4 5 7 7 7 9 9 9 10 11 9 8 8 7 5 5 6 5 6 7 7 7 8 9 11 11 12 13 12 12 14 15 13 14 13 13 14 14 16 18 19 20 21 22 23 23 23 23 23 22 21 20 20 20 20 20 20 19 19 18 18 18 18 17 17 18 19 20 22
6 7 9 8 7 7 6 4 1 2 3 3 5 4 2 3 4 5 7 7 7 9 9 8 9 10 9 9 9 7 6 6 6 5 6 6 7 7 7 8 10 11 12 12 11 12 14 14 13 13 13 13 14 15 15 17 19 20 21 22 23 24 24 23 23 23 22 21 21 21 21 20 20 20 19 18 18 18 18 17 17 17 17 18 20
10 10 10 9 7 7 7 7 6 4 4 4 4 3 1 2 4 6 7 7 9 11 9 7 9 10 9 10 10 9 8 7 6 6 6 6 6 6 6 8 10 10 10 9 11 13 13 13 12 13 14 13 13 15 15 16 18 19 21 23 23 25 25 23 24 23 22 22 22 22 21 21 21 21 20 19 19 18 18 17 17 17 16 16 17
14 12 11 9 8 9 9 10 8 6 6 6 6 5 5 5 6 8 9 9 11 11 9 7 9 10 10 11 11 10 9 7 6 6 7 7 6 6 6 9 10 9 9 10 11 12 11 12 12 12 13 13 13 13 14 15 16 17 19 23 24 24 25 25 23 23 22 21 22 22 21 21 21 21 20 20 20 19 19 18 17 17 16 16 15
17 15 14 12 12 10 9 10 9 9 10 10 10 10 10 9 9 10 10 11 11 10 9 8 8 9 10 10 11 11 8 6 5 6 7 7 6 7 7 9 10 10 11 11 11 10 10 12 11 10 12 12 12 12 12 14 15 15 18 22 23 22 24 25 23 23 22 22 22 21 20 21 21 21 20 20 20 20 19 18 17 17 16 16 15
19 17 15 15 14 11 11 12 10 10 11 11 12 13 13 11 10 10 10 11 10 10 9 7 7 9 10 10 12 10 6 5 5 6 6 6 7 8 8 8 10 11 12 11 11 10 9 9 8 8 9 9 10 10 10 11 12 14 17 19 21 21 21 23 23 23 23 22 22 21 20 20 21 21 21 21 20 19 19 18 17 17 17 16 16
18 17 15 15 16 13 13 15 12 11 12 12 13 13 12 9 9 9 9 9 9 9 8 7 8 9 10 11 11 9 6 5 6 7 6 6 7 7 6 6 8 10 10 10 11 10 8 7 5 5 6 7 8 8 8 8 9 12 14 17 18 17 17 20 22 22 22 22 23 22 21 20 21 21 21 21 20 19 18 18 17 17 17 17 17
16 16 14 15 17 14 14 16 14 13 14 14 14 13 11 9 8 9 9 10 9 7 6 7 9 10 11 11 10 8 6 5 8 8 5 5 7 6 4 5 7 8 9 10 10 9 7 6 5 4 5 6 6 8 9 8 9 12 12 13 13 12 14 17 19 20 20 21 21 22 21 21 22 21 21 21 19 19 18 18 18 18 18 18 17
16 15 14 15 18 17 14 15 14 13 15 15 14 14 13 11 10 10 11 9 5 4 4 6 8 9 9 10 9 7 5 6 9 8 4 4 6 6 5 7 8 8 8 9 9 7 4 4 5 5 4 3 4 6 8 9 9 8 8 8 10 11 13 15 17 18 18 18 19 20 20 21 22 21 22 21 20 19 19 19 19 18 18 18 18
15 14 14 15 19 20 17 15 14 13 14 13 12 14 13 11 10 11 9 6 4 3 3 5 7 8 7 7 7 6 5 7 9 6 4 5 6 7 7 8 9 8 7 7 7 4 2 4 6 5 4 3 3 3 6 8 6 4 3 5 9 11 12 14 15 16 16 17 17 17 18 20 21 21 22 21 20 20 19 19 19 19 18 18 18
12 13 13 14 18 21 20 18 16 15 14 12 12 13 12 11 10 10 8 5 4 3 3 5 7 7 8 8 6 5 6 6 6 4 5 5 7 8 8 8 8 7 6 6 6 3 3 5 6 5 3 2 3 3 4 4 3 1 1 4 7 9 11 13 14 15 16 17 17 17 17 18 19 20 20 20 20 20 20 19 20 19 18 18 18
11 10 12 14 16 20 22 21 19 18 17 15 14 14 14 13 10 9 8 6 4 2 3 5 5 6 8 9 7 6 7 5 4 4 5 5 6 9 9 8 6 6 7 6 5 4 4 6 6 4 3 2 3 3 3 3 3 1 2 4 5 7 10 12 15 16 16 17 17 16 16 16 16 17 17 18 19 19 19 19 19 19 18 17 17
11 10 10 12 15 18 21 22 21 19 17 17 16 16 15 13 10 8 6 4 4 4 4 4 4 6 8 8 7 7 8 8 5 4 6 6 7 8 8 6 6 7 9 6 6 6 4 5 4 3 2 2 3 3 3 2 2 1 2 4 5 6 8 11 14 16 18 20 18 15 16 16 16 15 15 16 17 17 18 18 18 17 17 17 17
13 11 10 11 14 16 19 20 21 19 16 16 17 15 14 12 10 8 6 3 5 6 4 4 4 5 7 7 6 6 8 10 8 5 7 8 8 8 6 6 7 8 9 6 6 8 6 5 4 2 1 2 3 2 2 1 1 1 1 2 4 6 7 8 10 13 16 18 16 15 16 16 16 15 15 16 16 16 17 17 16 16 16 17 16
15 14 12 11 13 15 17 19 20 19 17 17 16 14 13 11 10 9 7 4 6 6 5 5 5 5 6 6 6 6 9 10 9 8 10 9 8 9 7 7 9 9 8 4 4 8 7 5 3 1 2 2 2 2 1 3 3 2 2 2 1 4 6 8 9 10 12 13 13 14 16 16 17 16 16 17 16 16 16 16 16 16 16 16 16
16 14 13 13 14 15 16 18 19 19 19 18 16 14 13 11 10 9 6 5 7 8 8 7 6 6 6 6 7 8 9 8 8 10 12 10 9 9 7 9 11 10 8 5 2 5 8 6 4 1 2 1 1 3 1 3 4 4 5 5 2 2 4 6 8 10 10 10 11 11 13 14 16 15 16 16 16 16 17 16 16 16 16 16 16
16 14 13 14 15 15 16 17 18 19 19 19 17 14 13 11 10 9 6 7 9 11 10 8 8 7 6 5 6 8 9 8 8 9 12 12 11 10 9 9 12 11 7 6 4 3 7 8 6 3 2 1 2 3 0 4 5 6 8 7 5 2 2 4 6 9 10 10 10 9 10 12 12 13 14 15 16 17 17 17 16 16 16 16 16
17 16 15 14 14 15 16 16 17 18 19 19 17 15 13 12 12 9 7 8 10 10 10 9 9 8 6 5 7 8 8 8 8 8 10 11 12 12 12 12 12 12 8 7 6 4 6 8 6 4 2 3 3 3 1 4 6 7 9 8 7 5 3 3 5 7 8 9 8 8 9 10 10 11 12 13 14 15 15 15 15 15 15 16 16
19 19 18 16 15 15 15 15 16 17 19 19 18 16 14 13 13 11 9 8 9 10 9 8 9 8 7 6 7 8 8 8 8 8 8 9 11 12 13 14 14 13 11 8 7 5 5 7 6 2 2 3 4 3 1 3 4 6 8 9 8 7 5 5 6 8 8 8 7 7 8 9 9 10 11 11 12 12 13 13 14 15 15 16 17
21 20 20 19 17 16 16 16 15 16 18 19 18 18 16 14 13 12 10 9 10 9 7 7 8 9 9 7 6 7 8 8 8 8 8 8 10 11 12 13 13 13 12 9 7 5 5 6 6 2 3 4 4 4 2 2 3 5 7 8 8 7 6 5 6 7 8 8 8 8 8 9 9 10 10 11 11 12 13 14 14 15 16 17 18
22 22 21 20 19 18 18 17 16 16 17 18 18 18 18 16 14 13 10 10 10 9 7 7 8 9 9 8 7 7 7 8 8 8 9 10 11 11 11 13 13 12 11 9 7 6 5 7 6 4 3 4 5 4 3 3 3 4 6 7 7 6 6 5 5 6 7 8 8 8 9 9 10 11 11 11 12 13 14 15 16 17 18 19 19
23 22 22 21 21 21 21 20 19 18 17 16 16 17 19 19 17 14 12 11 11 11 11 9 8 9 8 6 5 5 6 7 8 9 10 11 11 11 11 12 13 12 10 8 8 6 5 6 6 5 3 3 4 4 4 4 3 4 4 6 7 6 6 5 5 5 5 6 7 7 7 8 9 10 11 11 12 12 13 15 15 15 16 16 17
21 21 20 20 20 21 21 22 22 21 19 17 16 16 18 20 20 17 15 14 14 14 12 11 11 10 8 5 5 6 6 7 8 9 10 10 10 10 12 13 14 12 10 8 8 6 5 6 6 5 4 2 2 2 3 3 4 4 4 5 6 6 6 6 6 5 4 4 4 5 6 6 7 8 9 10 11 11 11 11 11 12 12 11 12
18 18 18 19 19 20 20 22 23 23 21 20 18 16 16 18 20 20 18 17 17 15 13 12 11 10 9 8 8 7 6 7 9 9 9 9 9 10 12 13 14 13 11 9 8 6 4 5 5 4 4 3 2 2 2 3 4 5 5 5 5 5 6 6 6 6 5 4 3 3 3 4 5 6 7 8 9 9 9 9 9 10 10 10 9
17 17 17 18 19 20 21 21 22 24 24 23 21 17 16 16 18 20 21 20 20 17 14 13 12 10 10 10 10 10 8 9 10 9 9 9 9 10 11 11 12 12 11 10 8 6 5 5 5 3 3 3 2 2 3 3 4 5 5 4 4 4 5 5 6 6 6 5 4 3 2 2 3 4 5 6 6 7 7 8 9 9 10 10 9
16 16 17 18 19 20 21 21 22 23 25 26 24 20 18 17 17 19 20 21 22 20 17 15 14 12 11 11 11 13 11 10 10 10 10 10 10 11 11 10 10 11 10 10 9 7 6 5 4 4 2 1 1 3 4 3 4 4 4 4 4 4 4 4 5 5 5 5 4 4 3 2 2 3 4 4 5 5 5 6 7 8 8 8 9
15 15 15 16 17 18 20 22 23 23 23 24 24 22 20 20 19 19 20 21 22 23 22 19 16 14 14 14 13 13 12 10 11 11 10 10 10 10 10 10 10 11 10 10 9 7 6 5 4 4 2 1 0 2 3 3 3 4 4 3 3 4 4 4 4 4 4 4 4 4 3 3 2 3 4 4 5 5 5 5 5 6 6 7 10
12 13 14 14 15 16 17 19 21 21 21 21 22 21 21 22 22 21 21 22 23 23 23 24 21 19 18 18 17 15 12 11 11 11 11 11 11 10 10 11 11 10 9 10 9 7 6 6 5 3 1 2 2 2 1 2 2 3 4 4 4 4 4 3 3 2 2 2 3 3 3 3 2 2 2 3 4 5 5 4 4 5 5 5 7
11 13 13 13 13 14 15 16 17 18 19 20 20 20 20 22 23 23 23 24 24 22 21 23 24 24 23 22 20 16 13 13 12 12 13 14 15 12 10 11 11 9 10 10 10 8 6 6 6 4 2 3 4 4 3 2 1 2 3 4 4 4 5 4 4 3 2 2 3 3 2 3 2 2 2 2 2 3 4 4 4 4 4 5 7
12 12 12 12 12 13 14 15 16 16 18 19 19 18 18 20 23 25 25 25 25 23 20 19 20 22 22 21 19 16 14 14 13 13 14 14 14 13 11 11 11 11 11 10 10 9 6 5 7 6 4 5 5 5 5 4 3 3 3 4 4 4 4 4 4 3 4 4 4 4 4 4 4 3 3 3 2 3 3 3 5 4 4 7 9
13 12 12 11 11 13 15 16 16 16 16 17 17 18 19 20 22 24 23 22 22 21 20 18 18 17 17 17 17 17 16 15 13 12 13 14 13 14 13 11 11 12 12 10 9 9 7 5 6 7 6 6 6 5 6 6 5 5 6 5 4 3 4 4 4 4 5 6 6 7 7 5 4 3 4 4 4 4 4 4 5 6 5 7 9
12 12 12 13 13 14 16 17 17 16 16 16 16 18 19 20 21 22 21 20 19 19 19 19 18 16 15 14 15 16 17 18 15 13 14 16 15 14 12 11 10 11 11 11 10 9 8 6 6 7 7 8 8 8 8 8 8 8 7 6 5 5 5 5 5 6 7 7 8 8 6 6 8 6 5 6 5 5 5 6 7 7 7 8 8
12 11 13 14 16 16 16 17 18 18 17 17 17 18 19 20 20 20 20 19 18 17 16 17 17 17 16 15 14 14 16 19 20 18 16 16 15 14 13 12 13 12 12 11 10 9 8 8 7 8 8 9 9 9 10 10 10 9 8 6 6 6 7 7 7 7 8 7 8 8 7 10 13 11 8 9 10 8 7 7 8 8 8 9 9
12 12 13 15 17 17 16 16 18 18 19 19 19 19 19 19 19 19 19 19 18 16 15 14 16 16 16 16 14 13 13 16 20 20 16 14 14 14 14 14 14 14 13 11 10 10 9 9 10 10 10 9 9 9 10 11 11 11 10 9 8 9 10 10 9 9 9 8 9 10 10 10 12 12 13 14 14 14 13 9 8 9 9 10 11
13 13 14 16 18 17 15 16 19 19 19 19 20 21 20 19 19 18 19 19 18 17 16 14 15 16 16 16 15 13 12 13 15 16 14 13 14 15 15 15 14 13 12 12 11 11 10 11 12 12 12 11 10 10 11 12 13 13 12 12 12 12 13 13 12 11 11 11 10 11 11 11 12 13 15 15 15 16 15 12 13 15 13 13 14
13 14 14 17 19 17 15 17 19 20 20 19 19 21 22 21 21 20 20 20 19 18 17 15 14 15 16 16 16 14 14 13 13 13 13 13 15 16 16 16 15 15 14 13 12 12 12 13 14 14 13 13 12 12 12 13 14 14 14 14 14 14 15 16 15 13 13 13 12 11 11 12 13 13 14 14 14 14 15 16 19 20 16 16 18
13 15 16 18 19 17 16 17 18 18 19 19 18 19 21 22 23 23 22 21 21 19 18 17 16 16 16 17 17 17 18 17 15 15 15 15 15 17 17 17 17 16 16 14 14 14 14 14 15 14 13 14 14 14 14 16 16 16 16 15 15 15 16 16 15 14 14 13 12 11 11 12 12 12 11 11 11 13 15 16 17 18 16 15 16
13 15 16 17 18 18 17 16 16 16 16 16 17 17 17 19 22 23 23 23 23 22 21 20 19 18 18 17 17 18 19 20 18 17 17 17 17 18 18 19 19 19 18 17 16 15 15 15 15 15 15 15 15 15 17 17 17 17 17 16 16 17 17 17 16 16 16 14 13 12 11 10 8 8 7 7 8 10 11 12 13 15 15 14 14
14 15 14 15 17 19 19 19 18 17 16 15 15 15 16 17 20 23 23 23 22 23 23 23 21 20 18 19 19 17 16 18 18 18 19 19 19 18 17 17 18 19 19 19 18 16 15 15 15 16 16 16 16 16 17 17 17 18 18 18 18 19 19 18 18 19 18 16 14 12 11 9 8 8 7 7 7 8 8 8 9 11 12 12 13
16 15 15 15 17 18 19 19 19 19 18 16 15 16 17 18 20 22 23 22 21 23 24 24 23 21 18 19 21 20 18 18 19 20 21 22 21 19 17 16 16 16 18 19 19 18 18 17 16 17 17 17 17 17 17 17 17 19 20 20 20 21 21 21 21 21 20 17 15 13 12 10 10 11 10 9 8 9 9 9 10 10 11 11 11
16 16 15 16 16 17 17 17 18 18 18 18 17 17 19 20 21 22 23 23 23 24 26 25 25 25 22 20 20 21 21 21 21 21 20 20 20 19 19 19 18 17 17 18 19 19 20 20 20 20 20 20 19 18 18 17 18 19 21 21 22 23 23 23 24 24 21 18 16 15 14 13 12 12 11 9 9 10 10 9 9 8 8 7 7
17 16 16 15 15 16 16 16 17 18 19 19 19 19 19 20 20 22 23 23 24 25 26 26 27 27 26 24 22 22 22 23 23 23 21 20 19 19 20 21 21 20 20 20 20 20 21 22 23 24 24 23 21 20 18 17 17 19 21 22 23 23 24 26 26 25 23 21 19 17 15 15 14 13 12 10 10 11 10 10 9 8 8 7 7
20 19 18 18 17 17 16 16 16 17 18 20 21 21 21 20 19 20 21 21 23 24 25 27 27 27 26 26 27 27 25 25 25 24 25 24 23 22 21 21 21 21 22 22 22 22 23 23 24 25 25 24 23 21 18 18 19 20 21 23 23 24 25 26 26 26 24 23 22 19 17 17 16 14 12 12 13 13 12 12 10 9 8 8 7
22 22 22 22 22 21 20 19 17 17 17 18 19 20 21 21 20 20 21 21 22 23 24 26 26 26 26 27 28 28 27 27 27 26 25 25 25 24 23 23 23 23 23 24 24 24 24 24 25 25 25 25 25 24 22 22 23 23 23 24 24 24 24 25 27 27 26 26 25 22 19 18 17 16 15 15 15 15 14 13 13 12 11 10 9
20 20 20 21 21 22 22 22 21 20 18 17 17 18 18 19 20 21 22 22 22 22 23 24 25 26 26 26 27 27 27 27 27 26 25 25 25 24 23 24 24 24 25 26 26 26 25 25 24 24 25 26 26 25 23 23 25 26 26 26 26 24 25 26 27 28 29 29 27 25 22 21 20 19 18 18 18 17 17 17 17 16 14 12 9
16 17 17 17 18 18 19 20 21 21 21 20 18 16 15 16 17 19 21 23 23 22 21 22 24 26 27 27 28 28 28 27 26 25 24 24 23 23 23 24 24 25 26 26 26 27 26 26 26 25 26 27 26 24 22 23 26 26 27 28 28 28 28 28 29 31 31 31 29 28 26 24 24 24 22 22 20 19 20 21 20 18 15 12 10
14 15 15 15 16 16 16 17 17 19 21 22 21 19 17 16 16 17 19 20 21 21 21 22 23 23 23 25 26 27 27 26 26 25 25 24 24 24 25 25 25 26 26 25 25 26 26 26 26 26 26 26 26 25 23 24 26 27 27 29 29 30 30 31 31 32 31 31 32 31 28 26 26 27 26 26 24 23 23 23 20 16 14 14 13
13 14 15 15 15 16 16 15 15 15 16 18 20 21 21 19 17 17 17 17 17 18 19 21 22 21 21 22 23 24 25 25 25 25 24 25 26 26 25 26 26 26 25 24 24 24 25 25 25 25 26 26 26 27 26 25 25 25 26 27 28 29 30 31 34 34 33 32 33 32 29 27 29 30 29 30 30 26 23 20 17 16 16 16 14
Wind_Direction
126 136 149 146 140 142 142 142 143 145 154 151 165 232 263 341 360 3 350 339 343 342 337 329 330 342 340 330 330 323 313 309 299 286 281 277 266 262 259 254 252 255 258 260 260 257 256 255 258 258 248 238 234 233 235 237 238 240 241 238 234 231 231 231 231 231 228 228 230 230 231 231 232 233 233 233 234 234 236 239 240 240 241 242 244
124 126 144 153 151 146 145 148 152 167 206 214 211 225 354 7 341 339 339 338 343 338 334 332 327 336 345 340 341 341 328 304 296 300 294 283 273 268 266 262 260 262 264 266 266 263 262 259 258 256 250 245 240 237 238 238 235 235 237 237 235 233 232 232 230 230 229 229 230 231 233 233 233 234 235 235 235 236 237 240 241 241 240 241 241
144 143 145 156 164 158 155 159 157 173 228 218 204 226 338 7 345 331 334 334 335 332 330 336 335 339 347 349 353 350 333 301 291 300 305 294 281 273 269 268 267 267 269 272 271 272 268 261 259 257 253 249 244 241 239 239 239 237 237 236 237 236 234 236 234 229 229 229 230 231 232 233 234 235 235 236 236 237 239 240 242 242 240 239 240
165 168 165 172 176 174 171 164 138 139 255 226 208 232 303 339 333 325 324 326 331 330 332 339 339 343 350 350 354 352 324 300 296 298 297 291 288 283 275 274 275 274 276 276 281 287 271 257 258 261 260 253 244 242 239 238 242 241 240 239 239 238 237 239 239 233 230 231 230 232 233 233 236 237 237 236 237 237 238 241 243 243 242 241 241
198 200 186 186 189 198 199 192 211 303 289 255 220 233 297 311 317 316 313 315 325 329 330 335 338 346 355 350 349 349 331 309 305 308 303 300 299 292 283 283 287 289 289 285 288 287 264 256 268 269 265 258 245 244 245 243 245 243 241 242 241 241 239 238 239 235 231 232 232 231 234 235 237 238 238 238 238 239 240 241 242 244 244 244 243
207 221 202 191 201 220 221 220 238 259 270 257 212 202 257 280 290 290 295 304 315 323 324 328 339 347 349 346 345 345 335 313 307 318 313 308 301 297 296 300 305 304 302 297 289 278 259 259 271 265 261 260 251 247 248 247 247 244 242 245 245 244 242 239 239 236 231 231 232 232 232 234 237 238 239 240 240 241 242 242 242 244 246 247 246
205 217 204 199 209 211 206 203 210 224 236 242 228 216 229 245 265 275 287 301 311 320 325 330 343 347 342 341 342 341 335 320 320 321 312 313 312 317 320 317 324 319 305 295 287 280 269 270 274 269 265 264 262 255 251 249 247 243 240 243 246 247 247 243 241 240 235 230 230 230 231 232 235 237 239 241 241 243 244 244 244 243 245 247 248
205 209 203 209 210 201 201 200 207 227 229 234 239 237 243 250 258 272 289 299 308 319 324 330 341 342 335 337 343 341 338 333 338 329 319 329 332 337 338 328 330 321 302 295 296 295 285 282 281 276 270 264 263 259 255 252 246 241 238 242 246 245 247 246 241 238 236 234 231 228 228 231 233 234 237 239 241 243 245 244 243 242 242 244 245
207 209 213 220 212 202 210 207 208 228 230 234 240 244 251 252 249 262 282 292 306 319 321 327 335 332 326 335 345 345 341 335 343 346 342 346 347 351 348 330 320 313 307 304 308 307 295 291 286 274 270 265 262 259 256 252 246 241 239 243 244 240 242 244 239 235 234 235 236 230 227 230 231 232 234 236 239 241 242 242 241 240 239 240 242
212 216 223 223 209 200 210 210 209 222 234 242 245 248 247 238 239 253 272 286 302 312 316 327 331 326 324 335 343 340 330 324 340 355 356 350 356 3 354 331 317 313 315 315 313 307 297 296 289 273 265 260 264 264 256 247 239 236 236 238 239 236 237 240 236 234 232 234 237 235 230 230 231 230 231 233 236 238 239 239 239 239 238 238 241
218 219 220 213 202 199 207 208 209 221 236 244 247 249 241 231 242 255 269 285 300 312 321 330 330 325 325 334 338 330 325 330 339 351 0 353 357 5 346 328 329 327 323 324 327 317 297 300 303 288 264 245 247 250 246 233 220 224 230 233 239 237 234 236 233 228 229 232 235 234 231 232 233 231 231 233 235 238 238 238 238 238 237 236 238
220 218 214 207 200 201 206 205 208 221 235 243 242 240 236 234 246 257 268 279 287 315 334 335 328 323 323 329 330 324 327 339 338 345 17 17 2 356 331 322 335 340 329 330 338 329 297 306 312 304 295 259 240 244 243 227 207 211 222 227 235 236 233 234 230 222 223 228 230 231 231 231 232 231 233 235 236 238 238 238 238 237 236 236 237
221 220 216 211 204 205 208 208 209 220 234 239 230 228 230 231 243 255 265 273 265 276 332 343 328 321 324 327 322 316 322 334 336 348 30 25 7 352 331 328 340 343 333 334 344 342 298 305 304 298 304 281 262 270 255 233 207 200 219 228 229 228 230 230 225 219 219 223 224 226 228 227 228 230 233 235 236 236 236 237 237 237 236 236 237
219 220 220 218 210 209 213 215 214 219 231 235 225 224 228 231 241 254 268 284 273 266 332 344 329 322 333 336 328 321 329 331 333 358 18 8 358 347 335 334 340 341 335 332 342 337 281 294 298 291 294 277 267 271 252 222 180 165 225 241 235 225 224 224 222 220 217 218 219 221 225 224 224 228 231 232 233 233 233 234 236 238 237 237 237
223 221 223 223 218 215 217 221 223 224 229 234 230 225 228 235 245 258 269 272 265 271 326 333 325 330 341 339 331 331 336 334 331 353 360 350 344 342 339 339 342 346 345 339 341 338 296 299 306 290 285 280 267 234 199 168 139 150 251 247 245 232 222 219 220 219 216 216 217 218 221 222 221 223 227 229 230 231 232 234 235 236 237 239 240
233 230 229 228 225 222 221 225 229 230 232 234 232 227 229 238 247 257 260 256 269 287 297 301 308 333 345 339 325 322 329 338 342 342 346 348 341 335 338 346 351 352 356 358 356 355 336 320 318 286 276 288 269 208 171 155 140 201 249 239 239 233 223 219 219 220 219 216 214 215 216 218 220 218 221 227 229 231 232 232 233 235 237 240 241
238 238 240 234 227 225 224 226 229 232 234 234 232 233 234 237 242 245 239 255 291 289 281 280 293 327 341 337 325 314 323 338 345 337 338 347 344 338 341 349 353 356 0 10 14 11 360 332 322 273 236 265 249 198 122 65 3 299 262 236 237 227 219 217 215 219 223 219 216 219 217 216 219 218 220 225 227 230 231 229 231 234 238 240 239
241 241 243 237 227 225 226 226 229 232 235 234 233 235 236 233 232 233 231 253 279 279 273 271 287 309 318 320 320 319 327 337 344 339 340 353 355 351 354 353 356 360 1 6 27 22 14 352 333 265 184 225 219 163 66 22 13 4 34 56 230 218 211 211 209 212 219 219 219 222 220 218 219 219 222 223 224 227 227 228 232 236 237 237 236
241 240 243 238 227 225 227 227 229 232 235 236 235 233 230 230 226 224 236 264 272 277 274 268 285 298 295 305 318 326 330 332 339 338 338 349 2 3 2 1 1 4 8 15 44 35 23 14 1 22 155 227 207 143 68 15 26 25 39 58 75 196 207 205 207 206 205 208 214 216 217 218 217 219 222 222 223 226 227 230 234 235 235 232 231
236 235 242 239 230 225 227 228 229 231 234 237 239 235 229 226 222 219 239 269 273 276 272 268 284 292 285 301 323 330 330 327 330 334 331 333 348 4 7 7 7 9 18 23 23 26 16 11 9 16 79 144 160 158 80 14 25 28 38 51 65 92 181 187 193 198 198 203 206 204 206 210 212 216 220 221 224 227 230 231 231 231 232 229 227
239 238 239 240 236 229 226 228 230 230 232 238 240 236 231 223 219 220 236 260 270 272 273 276 282 279 279 304 322 325 328 329 329 329 328 326 335 352 359 2 9 13 18 15 3 357 357 3 11 14 53 123 137 157 121 24 25 29 36 44 58 79 111 143 156 168 180 192 198 198 199 202 205 210 214 217 221 224 226 226 226 228 229 229 229
249 248 244 242 243 237 230 228 230 231 231 235 236 233 232 224 219 223 233 252 266 272 279 288 283 269 269 295 311 312 317 328 333 330 327 325 326 340 351 355 360 6 11 15 10 6 1 5 17 35 107 132 134 145 122 46 37 36 40 42 51 72 96 121 138 147 156 167 176 182 188 194 199 204 209 211 214 217 219 220 222 225 227 229 232
252 252 249 247 246 244 239 232 229 231 230 232 233 231 230 225 218 218 230 248 259 267 280 296 295 277 268 274 287 294 300 316 332 329 323 321 324 336 349 350 351 357 5 14 15 14 16 12 14 50 125 139 143 146 128 74 58 51 49 48 49 62 84 111 133 141 150 158 166 172 178 186 193 199 204 206 209 212 215 217 219 223 227 231 234
251 249 248 247 245 243 243 239 232 230 231 234 235 232 230 224 216 214 226 242 248 258 273 291 300 290 277 272 278 285 288 304 321 321 320 318 321 334 346 346 347 351 358 7 11 13 21 15 13 37 104 136 147 145 130 100 79 71 65 60 59 63 77 97 119 131 142 154 166 175 182 188 193 197 200 205 211 215 219 222 225 228 234 238 240
249 248 247 246 244 241 241 242 239 235 236 238 238 237 232 225 221 219 222 232 243 255 263 269 283 290 286 277 283 290 291 307 313 309 316 317 316 328 340 343 344 343 347 357 2 3 12 15 14 22 51 123 145 145 136 120 102 94 87 77 73 75 82 91 104 121 133 147 162 174 183 190 198 204 206 211 218 224 226 231 235 237 241 243 240
248 248 247 246 244 241 238 237 239 240 240 241 242 239 233 226 223 222 220 226 237 249 254 255 262 275 276 263 271 284 291 306 306 303 310 312 313 325 334 338 339 337 338 346 354 355 355 7 12 22 39 78 121 131 135 124 114 114 107 94 88 85 87 90 94 106 124 142 160 172 181 189 201 211 215 218 222 229 232 236 240 240 241 241 239
249 250 250 249 247 243 237 232 233 238 240 243 244 238 228 223 222 220 221 225 231 239 249 250 247 257 266 263 268 275 283 291 294 299 302 301 308 320 326 330 331 332 334 339 352 354 347 359 2 13 42 50 74 111 118 115 121 126 116 104 103 100 94 95 95 97 104 112 132 165 187 202 216 221 223 224 226 232 238 243 246 246 246 243 240
254 253 251 250 249 243 238 233 231 234 238 242 246 238 224 222 222 222 223 226 229 232 240 242 236 244 262 268 268 267 274 284 285 291 297 298 304 309 315 322 322 323 328 334 347 352 348 0 360 349 12 24 43 107 117 119 130 136 129 119 120 119 108 105 105 102 99 100 106 122 148 194 226 226 224 226 229 232 237 244 247 248 247 244 236
255 253 250 249 248 242 237 234 232 234 237 240 245 240 227 224 228 228 227 227 229 230 232 236 235 237 250 260 260 256 260 273 277 281 290 295 299 299 301 310 313 313 316 322 335 346 350 1 4 347 337 344 43 93 103 116 138 148 148 148 150 148 138 128 124 120 113 110 112 113 116 133 174 193 202 208 211 218 228 239 240 237 237 228 211
254 253 252 248 245 239 235 233 232 234 236 237 240 238 228 227 230 234 236 234 232 231 230 234 236 237 245 254 257 253 253 262 271 275 279 283 290 292 291 296 305 310 308 308 318 334 347 353 355 350 331 234 171 66 76 103 142 159 162 171 183 184 177 166 155 145 136 134 137 130 119 121 150 177 191 199 200 207 221 227 220 216 215 204 196
252 252 253 249 245 239 232 230 230 231 234 233 234 232 228 228 231 235 239 241 241 236 231 232 235 236 242 252 259 256 251 255 263 268 269 273 278 283 287 289 296 306 304 299 303 313 331 338 337 339 302 255 279 310 19 115 148 158 163 182 207 223 225 218 204 193 177 165 164 159 149 145 154 176 198 207 208 213 226 229 211 198 194 201 210
253 252 252 251 247 242 233 229 228 229 231 231 230 231 230 232 234 236 239 243 247 245 237 234 235 238 242 250 256 252 247 252 255 258 265 269 268 270 280 282 283 294 297 291 291 296 308 324 322 311 275 271 280 282 273 255 203 169 177 197 217 233 243 250 253 245 236 235 215 204 203 195 193 205 222 231 226 226 235 235 219 198 186 203 222
250 248 247 245 247 247 241 235 232 231 232 231 230 231 235 238 238 239 241 245 250 250 243 237 237 239 243 248 249 242 238 247 251 252 257 260 258 261 273 278 281 292 292 283 282 286 285 300 308 301 283 268 269 274 276 275 266 245 239 239 242 244 244 252 259 256 256 253 238 233 248 251 238 232 235 241 251 261 267 258 247 238 208 203 215
237 241 243 243 245 248 245 241 238 236 235 235 234 234 237 240 240 240 243 247 249 247 242 240 238 235 237 245 247 239 235 242 248 247 249 252 256 264 271 278 286 290 286 274 271 277 276 279 291 291 283 269 266 275 280 275 269 263 260 265 269 248 228 231 240 246 251 251 246 241 245 257 263 272 280 267 257 264 273 274 273 274 257 230 224
232 239 246 243 239 241 242 242 241 240 239 239 239 238 238 239 239 241 244 248 248 244 243 242 238 230 228 238 246 244 240 241 243 245 248 251 258 264 267 275 285 287 281 269 262 267 271 270 275 278 277 273 273 280 281 269 258 259 260 265 265 241 230 240 247 254 256 253 253 246 238 252 259 266 292 287 271 265 267 273 278 280 279 268 252
233 236 243 241 236 235 238 240 241 240 241 241 240 238 236 237 239 242 247 249 247 245 247 248 244 237 234 238 246 251 248 243 242 245 250 250 253 260 267 274 280 283 283 272 260 259 264 265 264 264 268 272 274 276 279 270 261 262 264 266 262 246 243 252 259 268 270 265 262 254 244 256 261 258 263 267 261 252 246 257 275 275 273 272 267
234 233 236 239 238 236 237 244 245 242 241 242 242 240 235 233 237 243 247 247 247 249 253 254 247 240 239 245 254 260 256 245 240 242 244 243 247 258 266 272 276 279 279 272 258 254 258 262 263 264 268 273 275 275 274 271 266 265 260 254 254 251 252 261 267 272 276 273 266 260 252 254 257 254 257 261 262 257 248 244 262 268 265 265 265
234 234 236 240 241 237 237 245 249 248 248 246 244 243 238 232 232 237 242 244 248 253 256 257 249 239 239 249 257 262 257 245 238 237 237 241 251 257 260 265 271 274 275 272 261 253 253 255 258 264 270 274 278 279 276 273 270 266 259 252 250 249 252 263 272 273 274 272 266 264 261 256 254 255 259 262 262 263 261 256 256 256 257 265 265
235 236 238 240 240 237 238 245 248 251 254 253 246 241 239 235 232 233 236 239 244 249 252 256 254 246 245 250 253 254 254 250 244 241 242 246 250 252 255 260 264 268 274 276 270 261 257 255 253 258 269 275 277 278 276 275 269 259 254 253 253 251 252 262 274 276 274 273 270 265 258 255 258 259 260 263 260 256 257 259 259 256 254 263 266
242 239 236 237 239 238 238 243 248 251 254 255 250 242 239 237 234 233 235 237 238 241 244 248 251 249 249 252 254 254 255 254 250 247 248 249 248 249 253 256 259 262 267 270 270 267 263 258 254 255 264 271 274 274 270 268 264 259 257 257 256 258 260 266 276 277 272 274 277 275 268 265 263 255 250 256 257 252 254 260 264 263 261 267 272
242 239 237 240 243 243 241 241 245 249 250 250 248 244 241 240 237 234 236 240 240 239 239 242 245 246 246 250 258 262 259 253 248 249 252 254 254 255 257 259 261 261 261 261 264 266 265 259 254 255 259 262 267 271 269 269 270 270 268 263 257 260 264 268 273 274 272 275 279 282 285 282 267 250 243 251 254 249 254 262 264 262 263 268 271
241 242 242 243 243 244 244 243 245 248 250 249 247 247 247 244 239 235 235 237 239 240 242 243 244 245 244 246 253 259 258 251 249 252 255 258 259 258 259 261 262 258 254 252 254 260 264 261 255 256 260 262 267 271 273 276 273 268 268 267 262 260 262 261 261 263 266 269 271 275 281 279 264 256 261 270 268 254 248 258 262 258 255 256 255
239 242 242 241 239 239 241 242 243 247 250 251 249 248 247 243 239 236 235 236 238 240 243 243 243 244 244 243 246 249 251 251 251 250 252 256 257 257 258 261 261 259 254 251 253 257 262 263 258 255 257 263 268 270 272 272 266 262 265 269 267 264 263 259 259 263 264 264 263 265 268 265 256 253 262 274 273 256 244 245 249 246 242 239 233
235 237 238 239 238 239 240 239 241 244 246 247 245 243 243 243 241 240 240 239 238 239 241 242 243 244 243 242 243 246 248 251 253 252 250 250 251 252 255 258 260 260 257 256 258 260 262 264 262 259 260 266 269 266 266 267 264 262 264 266 268 269 267 265 267 270 270 265 260 258 260 261 253 247 256 266 258 245 237 229 224 219 213 206 196
233 233 234 236 238 241 242 240 239 239 239 240 240 240 242 243 244 244 242 241 240 239 239 241 244 245 245 244 243 244 246 248 252 255 254 253 253 253 253 253 254 253 254 257 260 262 266 266 265 263 265 267 267 263 262 267 268 266 266 268 270 271 270 270 272 274 273 269 262 257 255 253 246 241 244 242 229 219 210 197 184 175 171 169 166
237 236 236 238 239 241 242 240 238 238 238 238 239 240 241 243 243 243 244 244 244 243 241 242 244 245 246 245 244 245 246 248 250 253 256 258 259 258 255 253 252 252 254 256 259 263 267 267 266 266 265 264 264 263 263 265 266 267 270 273 275 275 274 272 271 269 267 264 262 256 249 241 234 230 226 216 203 195 187 175 160 151 148 145 141
240 240 240 242 243 243 243 241 240 240 240 241 242 242 243 243 243 244 246 248 248 247 245 243 243 244 245 246 246 247 248 249 250 252 255 256 256 258 259 257 255 255 256 259 262 265 265 266 266 266 265 263 263 261 260 262 264 266 268 271 272 273 271 267 264 259 255 254 254 248 239 231 222 216 209 199 192 185 175 160 145 137 131 126 122
238 239 239 240 241 242 243 243 242 242 241 240 243 245 245 245 244 244 245 246 247 247 246 243 242 241 241 244 248 249 248 249 249 250 252 253 253 256 259 258 256 256 258 261 264 264 262 264 265 265 265 264 262 261 260 260 263 265 266 266 263 261 260 258 257 255 250 247 245 239 234 225 211 205 198 188 183 177 164 150 140 135 131 126 121
239 239 239 239 239 240 241 241 241 241 241 240 240 241 242 243 244 244 244 244 244 246 247 246 245 244 243 244 248 250 249 249 248 247 247 250 254 257 260 261 261 261 262 262 263 262 262 263 263 264 266 266 266 268 269 267 266 263 261 261 260 259 257 253 253 253 247 243 239 234 230 220 204 197 190 179 172 166 156 147 142 138 133 128 125
241 241 242 242 241 241 241 241 241 240 240 240 238 236 235 236 239 242 243 243 243 245 246 247 247 247 246 245 247 249 250 250 249 247 247 252 257 259 260 261 262 262 263 262 261 261 261 261 262 263 264 266 268 271 271 270 267 260 257 260 262 262 258 253 254 250 239 234 234 230 222 211 196 189 180 166 157 155 153 149 148 145 138 134 131
244 246 247 246 244 244 242 242 242 242 242 241 239 236 234 234 236 239 242 242 241 240 242 244 246 244 241 243 246 249 251 252 251 251 252 256 259 259 260 260 261 262 262 261 259 259 259 260 261 262 262 264 268 271 272 270 266 264 266 266 264 262 259 256 254 246 232 227 229 224 215 199 183 175 168 157 149 150 152 151 150 146 140 138 138
Height
1580 1580 1580 1581 1582 1583 1583 1584 1585 1586 1586 1586 1586 1585 1585 1585 1585 1585 1584 1583 1583 1583 1583 1583 1583 1581 1579 1577 1576 1575 1575 1574 1574 1574 1574 1573 1572 1571 1571 1571 1570 1570 1570 1570 1571 1572 1571 1570 1570 1570 1570 1568 1568 1568 1568 1568 1569 1569 1571 1573 1574 1575 1576 1577 1579 1579 1580 1581 1583 1584 1584 1585 1585 1586 1587 1588 1590 1591 1592 1593 1594 1595 1596 1597 1597
1579 1579 1580 1581 1582 1583 1583 1584 1585 1585 1586 1586 1586 1585 1585 1585 1585 1584 1583 1582 1583 1584 1584 1583 1582 1580 1578 1577 1576 1575 1575 1574 1574 1573 1572 1572 1571 1570 1570 1569 1569 1569 1569 1569 1570 1571 1570 1569 1568 1568 1568 1566 1566 1566 1566 1566 1566 1567 1568 1570 1572 1573 1574 1576 1577 1578 1579 1580 1581 1582 1583 1584 1584 1585 1585 1587 1588 1589 1590 1591 1592 1593 1594 1595 1596
1579 1579 1579 1581 1582 1582 1583 1584 1584 1585 1585 1585 1585 1584 1584 1584 1584 1584 1583 1582 1583 1584 1584 1583 1582 1580 1578 1577 1576 1575 1575 1574 1573 1572 1572 1571 1570 1569 1568 1568 1568 1567 1567 1567 1567 1568 1568 1568 1567 1567 1565 1564 1563 1564 1564 1564 1564 1565 1567 1568 1569 1571 1573 1574 1575 1576 1576 1578 1580 1581 1582 1582 1583 1583 1584 1585 1586 1587 1588 1589 1590 1591 1592 1593 1594
1578 1578 1579 1580 1581 1582 1583 1583 1583 1584 1584 1584 1584 1584 1583 1583 1583 1583 1582 1583 1584 1584 1584 1583 1581 1579 1578 1577 1577 1576 1575 1574 1572 1572 1571 1571 1570 1569 1568 1567 1566 1566 1566 1566 1566 1567 1567 1567 1566 1564 1562 1561 1561 1561 1562 1562 1562 1564 1566 1567 1568 1569 1570 1572 1574 1574 1574 1576 1578 1579 1580 1581 1582 1582 1583 1584 1585 1586 1587 1588 1589 1590 1591 1591 1592
1578 1578 1578 1579 1580 1581 1582 1582 1583 1583 1583 1583 1583 1583 1583 1583 1583 1582 1582 1583 1584 1584 1584 1583 1581 1579 1577 1577 1577 1576 1574 1573 1572 1571 1571 1570 1569 1568 1567 1566 1564 1564 1565 1565 1566 1567 1566 1565 1563 1562 1560 1560 1559 1559 1560 1560 1561 1563 1565 1566 1567 1568 1569 1569 1571 1572 1572 1574 1576 1577 1578 1579 1580 1581 1581 1582 1583 1584 1585 1586 1587 1588 1589 1590 1590
1578 1578 1578 1578 1579 1580 1581 1582 1583 1583 1583 1583 1582 1582 1582 1582 1582 1582 1582 1583 1584 1584 1583 1582 1580 1578 1577 1577 1576 1575 1573 1572 1571 1570 1570 1569 1568 1567 1566 1565 1563 1563 1563 1563 1564 1565 1564 1562 1561 1560 1559 1558 1558 1557 1558 1559 1561 1562 1564 1565 1565 1567 1568 1568 1569 1570 1570 1572 1574 1575 1576 1577 1578 1579 1580 1581 1582 1583 1584 1585 1585 1586 1587 1588 1588
1577 1577 1577 1578 1579 1580 1581 1581 1582 1583 1582 1582 1582 1582 1582 1582 1582 1582 1582 1583 1583 1583 1583 1582 1580 1578 1577 1577 1576 1574 1572 1571 1570 1570 1569 1569 1568 1567 1565 1563 1562 1562 1563 1563 1562 1561 1560 1558 1558 1558 1556 1556 1556 1556 1557 1559 1560 1561 1562 1562 1562 1564 1566 1566 1567 1568 1569 1570 1572 1573 1574 1575 1576 1577 1578 1579 1580 1581 1582 1583 1584 1585 1586 1586 1587
1577 1577 1577 1578 1579 1580 1580 1581 1581 1582 1582 1582 1582 1582 1583 1582 1582 1581 1581 1582 1583 1583 1582 1581 1579 1577 1577 1576 1575 1573 1571 1571 1570 1569 1569 1568 1567 1566 1564 1562 1561 1561 1561 1561 1559 1557 1556 1555 1555 1554 1554 1554 1555 1556 1557 1557 1558 1558 1559 1559 1560 1561 1563 1564 1565 1566 1567 1569 1570 1571 1572 1573 1574 1575 1576 1577 1578 1579 1580 1581 1582 1583 1584 1585 1586
1576 1577 1577 1578 1579 1580 1580 1580 1581 1581 1581 1581 1581 1582 1582 1582 1582 1581 1581 1581 1582 1582 1581 1580 1578 1577 1576 1575 1574 1572 1571 1570 1570 1569 1568 1567 1567 1565 1563 1562 1561 1560 1558 1557 1556 1555 1554 1553 1553 1553 1553 1553 1554 1554 1555 1555 1555 1555 1556 1557 1558 1560 1560 1561 1562 1564 1565 1567 1568 1569 1570 1571 1572 1573 1574 1575 1576 1577 1578 1579 1580 1581 1582 1583 1584
1575 1576 1577 1577 1578 1579 1579 1579 1580 1580 1580 1580 1580 1581 1581 1581 1581 1581 1581 1581 1581 1581 1580 1578 1577 1576 1576 1575 1573 1572 1571 1570 1569 1568 1567 1567 1566 1565 1564 1563 1561 1560 1558 1556 1555 1554 1553 1553 1552 1552 1552 1552 1552 1553 1553 1553 1553 1554 1555 1556 1557 1558 1558 1558 1559 1562 1563 1565 1566 1567 1568 1569 1570 1571 1572 1573 1574 1575 1576 1578 1579 1580 1581 1582 1583
1574 1575 1576 1576 1577 1578 1578 1578 1579 1579 1579 1579 1579 1580 1580 1580 1580 1580 1580 1580 1580 1580 1579 1577 1576 1575 1575 1573 1572 1572 1571 1569 1568 1567 1567 1566 1566 1565 1564 1563 1562 1560 1559 1557 1555 1553 1552 1552 1552 1552 1552 1552 1553 1552 1552 1552 1553 1553 1554 1555 1555 1555 1556 1557 1558 1560 1562 1563 1564 1565 1566 1567 1568 1569 1570 1571 1572 1573 1575 1576 1577 1578 1579 1580 1581
1573 1574 1575 1575 1576 1577 1577 1577 1577 1578 1578 1578 1578 1579 1579 1579 1580 1580 1579 1580 1579 1579 1578 1577 1576 1575 1574 1573 1571 1571 1570 1569 1568 1567 1566 1566 1566 1565 1564 1563 1562 1561 1559 1557 1555 1554 1553 1552 1552 1552 1552 1552 1553 1552 1552 1552 1553 1552 1552 1552 1553 1554 1555 1556 1557 1559 1560 1561 1562 1563 1564 1565 1567 1568 1569 1570 1571 1572 1573 1574 1576 1577 1578 1579 1580
1572 1573 1574 1574 1575 1576 1576 1576 1576 1577 1577 1577 1578 1578 1578 1579 1579 1579 1579 1579 1579 1578 1578 1577 1576 1575 1574 1573 1571 1571 1570 1569 1568 1567 1566 1566 1565 1565 1564 1563 1562 1561 1559 1558 1556 1555 1554 1553 1553 1552 1551 1551 1552 1552 1552 1551 1551 1551 1551 1551 1552 1553 1554 1555 1556 1557 1558 1560 1561 1562 1563 1564 1565 1566 1567 1568 1569 1570 1571 1573 1574 1575 1576 1577 1578
1571 1572 1573 1573 1574 1575 1575 1576 1576 1576 1576 1576 1577 1577 1577 1578 1577 1578 1578 1578 1578 1578 1577 1577 1576 1575 1574 1572 1571 1570 1570 1568 1567 1567 1566 1566 1565 1564 1563 1562 1561 1560 1559 1558 1556 1555 1555 1554 1553 1552 1552 1552 1552 1552 1552 1551 1551 1551 1551 1551 1551 1553 1553 1554 1555 1556 1557 1558 1559 1560 1561 1562 1563 1564 1565 1566 1568 1569 1570 1571 1573 1574 1575 1576 1577
1570 1571 1571 1572 1573 1574 1574 1575 1575 1575 1575 1576 1576 1576 1576 1577 1577 1577 1577 1577 1577 1577 1577 1576 1576 1575 1573 1572 1571 1570 1569 1568 1567 1566 1566 1565 1564 1563 1562 1561 1560 1559 1558 1557 1557 1556 1555 1555 1554 1553 1553 1552 1552 1552 1552 1552 1552 1551 1551 1551 1551 1552 1552 1553 1554 1555 1556 1557 1558 1559 1559 1560 1561 1562 1564 1565 1566 1568 1569 1570 1571 1573 1574 1575 1576
1569 1570 1570 1571 1571 1572 1573 1573 1574 1574 1574 1575 1575 1575 1575 1576 1576 1576 1576 1576 1576 1576 1576 1576 1575 1575 1573 1572 1571 1570 1569 1567 1566 1566 1565 1564 1563 1562 1562 1560 1559 1559 1558 1557 1556 1556 1555 1555 1554 1554 1553 1553 1553 1553 1553 1553 1553 1552 1552 1551 1550 1551 1551 1551 1553 1553 1554 1556 1556 1557 1558 1559 1560 1561 1562 1564 1565 1566 1568 1569 1570 1571 1573 1574 1575
1568 1568 1569 1569 1570 1571 1571 1572 1572 1573 1573 1573 1574 1574 1575 1575 1575 1575 1575 1575 1575 1575 1575 1575 1575 1574 1573 1572 1571 1570 1569 1567 1566 1566 1565 1564 1563 1562 1562 1561 1559 1559 1557 1557 1556 1556 1556 1556 1555 1554 1554 1553 1553 1553 1553 1553 1553 1553 1552 1550 1550 1550 1550 1550 1551 1552 1553 1554 1554 1556 1557 1558 1559 1560 1561 1562 1564 1565 1566 1567 1568 1570 1571 1572 1574
1566 1567 1567 1568 1569 1569 1570 1570 1571 1572 1572 1572 1573 1573 1574 1574 1574 1574 1574 1574 1574 1575 1575 1574 1574 1573 1573 1572 1572 1570 1569 1568 1567 1566 1565 1564 1563 1562 1562 1561 1560 1559 1558 1557 1556 1556 1556 1556 1556 1555 1554 1553 1553 1553 1553 1553 1553 1553 1551 1550 1549 1548 1549 1549 1550 1551 1551 1552 1553 1554 1555 1556 1557 1559 1560 1561 1562 1563 1565 1566 1567 1569 1570 1571 1572
1565 1566 1566 1566 1567 1568 1568 1569 1570 1570 1571 1571 1572 1572 1573 1573 1573 1573 1573 1573 1573 1574 1574 1574 1573 1573 1573 1572 1571 1570 1569 1568 1567 1566 1564 1563 1563 1563 1562 1561 1560 1558 1558 1557 1556 1556 1556 1556 1556 1555 1554 1553 1553 1553 1554 1554 1553 1552 1551 1549 1548 1547 1548 1548 1549 1550 1550 1551 1552 1553 1554 1555 1556 1557 1558 1560 1561 1562 1563 1565 1566 1567 1568 1570 1571
1564 1564 1565 1565 1566 1566 1567 1568 1568 1569 1569 1570 1571 1571 1571 1572 1572 1572 1572 1572 1572 1573 1573 1573 1572 1572 1572 1571 1571 1570 1569 1568 1567 1567 1565 1563 1563 1562 1562 1561 1560 1559 1558 1557 1556 1556 1556 1556 1556 1555 1555 1554 1553 1553 1554 1553 1553 1552 1550 1549 1548 1547 1547 1547 1548 1548 1549 1550 1551 1552 1553 1554 1555 1556 1557 1558 1559 1560 1562 1563 1564 1565 1567 1568 1569
1562 1563 1564 1564 1565 1565 1565 1566 1566 1567 1568 1569 1569 1570 1570 1571 1571 1571 1571 1571 1571 1571 1572 1572 1571 1571 1571 1571 1570 1569 1568 1567 1567 1566 1566 1564 1563 1562 1561 1561 1560 1559 1558 1557 1556 1556 1556 1556 1555 1555 1555 1555 1554 1554 1554 1553 1552 1551 1550 1549 1548 1547 1547 1547 1547 1548 1549 1550 1551 1551 1552 1553 1554 1555 1556 1557 1558 1559 1560 1562 1563 1564 1565 1566 1567
1561 1561 1562 1563 1563 1564 1564 1564 1565 1566 1566 1567 1568 1568 1569 1569 1570 1570 1570 1570 1570 1570 1571 1571 1570 1570 1570 1570 1570 1569 1568 1567 1566 1566 1565 1565 1563 1562 1561 1560 1559 1559 1558 1557 1556 1556 1556 1556 1555 1555 1555 1555 1555 1555 1554 1554 1553 1552 1551 1549 1548 1548 1547 1547 1547 1548 1549 1550 1550 1551 1552 1553 1554 1554 1555 1556 1557 1558 1560 1561 1562 1563 1564 1565 1566
1560 1560 1561 1561 1562 1562 1563 1563 1563 1564 1565 1565 1566 1567 1567 1568 1568 1569 1569 1569 1569 1569 1569 1569 1569 1569 1569 1569 1569 1569 1568 1567 1566 1566 1565 1564 1563 1562 1561 1560 1560 1559 1558 1557 1557 1556 1556 1556 1555 1555 1555 1555 1555 1555 1554 1554 1553 1553 1551 1550 1549 1549 1548 1548 1548 1549 1549 1550 1550 1551 1552 1552 1553 1554 1555 1556 1556 1558 1559 1560 1561 1562 1562 1563 1564
1558 1559 1559 1560 1560 1561 1561 1561 1562 1562 1563 1563 1564 1565 1566 1567 1567 1567 1567 1567 1568 1568 1568 1568 1568 1568 1568 1569 1568 1568 1568 1567 1566 1565 1565 1564 1563 1561 1560 1560 1560 1559 1558 1558 1557 1556 1556 1556 1555 1555 1555 1554 1554 1554 1554 1554 1554 1553 1552 1551 1550 1550 1549 1549 1549 1549 1549 1550 1550 1551 1552 1552 1553 1553 1554 1555 1556 1557 1558 1558 1559 1560 1561 1561 1562
1557 1557 1558 1558 1559 1559 1559 1560 1560 1561 1561 1562 1562 1563 1564 1565 1565 1565 1565 1566 1566 1566 1566 1567 1567 1567 1567 1567 1568 1567 1567 1566 1566 1565 1564 1564 1563 1561 1560 1559 1559 1559 1558 1558 1557 1557 1556 1556 1555 1554 1554 1554 1554 1554 1554 1554 1553 1553 1553 1552 1551 1551 1550 1550 1549 1549 1549 1550 1550 1551 1551 1552 1552 1553 1553 1554 1555 1556 1557 1557 1558 1559 1559 1560 1560
1555 1556 1556 1557 1557 1557 1557 1558 1558 1559 1559 1560 1561 1561 1562 1563 1564 1564 1564 1564 1565 1565 1565 1565 1565 1566 1566 1566 1566 1566 1566 1566 1565 1564 1564 1563 1562 1561 1560 1559 1559 1559 1558 1558 1557 1557 1556 1555 1555 1554 1554 1554 1554 1554 1554 1553 1553 1553 1553 1552 1552 1552 1551 1550 1550 1550 1550 1550 1550 1551 1551 1551 1552 1552 1553 1554 1554 1555 1555 1556 1557 1557 1558 1558 1559
1553 1553 1554 1554 1554 1554 1555 1556 1556 1557 1558 1558 1559 1560 1560 1561 1562 1562 1563 1563 1563 1563 1564 1563 1564 1564 1565 1565 1565 1565 1565 1565 1564 1564 1563 1563 1562 1561 1560 1559 1559 1558 1558 1557 1557 1556 1556 1555 1555 1554 1554 1554 1554 1554 1553 1553 1553 1553 1553 1552 1552 1552 1551 1551 1551 1550 1550 1550 1551 1551 1551 1551 1551 1552 1552 1553 1553 1554 1554 1555 1555 1556 1556 1557 1558
1550 1551 1551 1551 1552 1552 1553 1553 1554 1555 1556 1557 1557 1558 1558 1559 1560 1561 1561 1562 1562 1562 1562 1562 1562 1563 1563 1564 1564 1564 1564 1563 1563 1563 1563 1562 1561 1561 1560 1560 1559 1558 1558 1557 1556 1556 1556 1555 1555 1554 1554 1554 1554 1553 1553 1553 1553 1552 1552 1553 1553 1552 1552 1551 1551 1551 1551 1551 1551 1551 1551 1551 1552 1552 1552 1553 1553 1553 1554 1554 1555 1555 1556 1556 1557
1548 1548 1549 1549 1549 1550 1550 1551 1552 1553 1554 1555 1556 1556 1557 1557 1558 1559 1559 1560 1560 1560 1561 1561 1561 1561 1562 1562 1562 1562 1562 1563 1562 1562 1562 1562 1561 1560 1560 1560 1559 1558 1557 1557 1556 1556 1556 1555 1555 1554 1554 1554 1553 1553 1553 1552 1552 1552 1552 1552 1553 1552 1552 1552 1552 1551 1551 1551 1551 1552 1552 1552 1552 1552 1552 1553 1553 1553 1554 1554 1554 1555 1555 1556 1556
1546 1546 1547 1547 1547 1548 1548 1549 1550 1551 1552 1553 1553 1554 1555 1555 1556 1557 1557 1558 1559 1559 1559 1560 1560 1560 1560 1561 1561 1561 1561 1561 1561 1561 1561 1561 1560 1560 1560 1559 1559 1558 1557 1556 1556 1555 1555 1555 1555 1554 1554 1553 1553 1553 1552 1552 1552 1552 1552 1552 1552 1552 1552 1552 1552 1552 1552 1552 1552 1552 1552 1552 1552 1552 1553 1553 1553 1553 1554 1554 1554 1554 1555 1555 1556
1544 1545 1545 1546 1546 1546 1546 1547 1548 1549 1550 1551 1551 1552 1553 1553 1554 1555 1556 1556 1556 1557 1557 1558 1558 1559 1559 1559 1560 1560 1560 1560 1560 1560 1560 1560 1560 1559 1559 1559 1559 1558 1557 1556 1555 1555 1555 1555 1555 1554 1553 1553 1553 1552 1552 1552 1552 1552 1552 1551 1551 1551 1551 1551 1552 1552 1552 1552 1552 1552 1552 1552 1553 1553 1553 1553 1553 1553 1554 1554 1554 1554 1555 1556 1557
1543 1543 1544 1544 1545 1545 1545 1546 1547 1547 1548 1549 1549 1550 1550 1551 1552 1553 1553 1554 1554 1555 1555 1556 1556 1557 1557 1557 1558 1559 1559 1559 1559 1559 1559 1559 1559 1558 1558 1558 1558 1558 1557 1556 1555 1555 1555 1555 1554 1554 1553 1553 1553 1552 1552 1552 1552 1552 1552 1551 1551 1551 1551 1551 1551 1552 1552 1552 1552 1553 1553 1553 1553 1553 1553 1553 1553 1553 1554 1554 1554 1554 1555 1556 1556
1541 1542 1543 1543 1544 1544 1544 1545 1545 1546 1546 1547 1547 1548 1548 1549 1550 1551 1551 1552 1552 1552 1553 1554 1554 1555 1555 1556 1556 1557 1557 1557 1558 1558 1558 1557 1557 1557 1557 1557 1557 1557 1557 1556 1555 1555 1555 1555 1554 1554 1553 1553 1553 1553 1553 1552 1552 1552 1551 1551 1550 1550 1550 1551 1551 1552 1552 1552 1552 1553 1553 1553 1553 1553 1553 1553 1553 1553 1553 1554 1554 1554 1555 1555 1555
1538 1540 1541 1542 1542 1543 1543 1543 1544 1544 1544 1545 1545 1546 1546 1547 1548 1548 1549 1550 1550 1550 1551 1551 1552 1552 1553 1554 1554 1555 1556 1556 1556 1556 1556 1556 1556 1556 1556 1556 1556 1556 1556 1556 1555 1555 1555 1555 1555 1554 1553 1552 1552 1552 1552 1552 1551 1550 1550 1550 1550 1550 1550 1550 1551 1551 1551 1552 1552 1552 1552 1552 1552 1552 1553 1553 1553 1553 1553 1553 1554 1554 1554 1555 1555
1536 1538 1539 1540 1540 1541 1541 1542 1542 1542 1543 1543 1544 1544 1544 1545 1546 1546 1547 1547 1548 1548 1548 1549 1550 1550 1551 1551 1552 1553 1554 1554 1555 1555 1555 1555 1555 1555 1555 1554 1554 1555 1555 1555 1555 1555 1555 1555 1554 1553 1552 1552 1552 1551 1551 1550 1550 1549 1549 1550 1550 1550 1550 1550 1550 1551 1551 1551 1551 1551 1552 1552 1552 1552 1552 1553 1553 1553 1553 1553 1553 1554 1554 1554 1554
1534 1535 1537 1538 1539 1539 1539 1540 1541 1541 1541 1541 1542 1542 1543 1543 1544 1544 1545 1545 1546 1546 1547 1547 1548 1548 1549 1549 1550 1551 1552 1552 1553 1553 1554 1554 1554 1554 1554 1553 1553 1554 1554 1554 1554 1554 1554 1553 1553 1552 1551 1551 1551 1550 1550 1550 1549 1548 1548 1549 1549 1549 1549 1549 1549 1550 1550 1550 1550 1551 1551 1551 1551 1551 1552 1552 1552 1552 1552 1553 1553 1553 1553 1553 1554
1532 1532 1534 1536 1537 1537 1538 1539 1539 1539 1540 1540 1540 1541 1541 1541 1542 1542 1543 1544 1544 1545 1545 1546 1546 1547 1547 1548 1549 1549 1550 1550 1550 1551 1552 1552 1553 1553 1553 1552 1552 1553 1553 1553 1553 1553 1552 1552 1551 1551 1550 1550 1550 1549 1549 1549 1548 1547 1547 1547 1548 1548 1548 1548 1549 1549 1549 1550 1550 1550 1550 1550 1551 1551 1551 1551 1551 1551 1551 1551 1552 1552 1552 1553 1553
1531 1529 1531 1534 1535 1536 1536 1537 1538 1538 1538 1539 1539 1539 1539 1540 1540 1540 1541 1542 1542 1543 1544 1544 1545 1545 1546 1547 1547 1548 1548 1549 1549 1550 1550 1551 1551 1551 1551 1551 1551 1552 1552 1552 1551 1551 1551 1551 1550 1549 1549 1549 1549 1548 1548 1547 1547 1547 1547 1547 1547 1547 1547 1548 1548 1548 1548 1549 1549 1549 1549 1549 1550 1550 1550 1550 1550 1550 1550 1550 1551 1551 1551 1551 1551
1528 1528 1529 1532 1534 1534 1535 1535 1536 1537 1537 1537 1538 1538 1538 1538 1538 1538 1539 1539 1540 1541 1542 1542 1543 1544 1544 1545 1546 1547 1547 1548 1548 1548 1549 1549 1549 1550 1550 1550 1550 1550 1550 1550 1550 1550 1550 1549 1549 1548 1548 1547 1547 1547 1547 1546 1546 1546 1546 1546 1546 1546 1547 1547 1547 1547 1547 1548 1548 1548 1548 1548 1548 1549 1549 1549 1549 1549 1549 1549 1549 1549 1549 1550 1549
1527 1528 1529 1531 1533 1533 1533 1534 1534 1535 1535 1535 1536 1536 1536 1536 1536 1536 1537 1537 1538 1538 1539 1540 1541 1542 1543 1543 1544 1545 1546 1546 1547 1547 1547 1548 1548 1548 1549 1549 1549 1549 1549 1548 1548 1548 1548 1548 1547 1547 1547 1546 1546 1546 1546 1545 1544 1544 1544 1545 1545 1545 1546 1546 1546 1546 1546 1546 1547 1547 1547 1547 1546 1547 1547 1547 1547 1548 1548 1548 1547 1547 1547 1548 1548
1526 1528 1529 1530 1531 1531 1531 1532 1532 1533 1533 1533 1534 1534 1534 1534 1534 1534 1535 1535 1536 1536 1537 1538 1539 1539 1540 1541 1542 1543 1543 1544 1545 1545 1546 1546 1546 1546 1547 1547 1547 1547 1547 1547 1547 1547 1547 1546 1546 1546 1546 1545 1545 1545 1544 1544 1543 1543 1543 1544 1544 1544 1545 1545 1545 1545 1545 1545 1546 1546 1545 1545 1545 1545 1546 1546 1546 1546 1546 1546 1546 1546 1546 1547 1547
1526 1526 1528 1528 1528 1529 1530 1530 1530 1530 1531 1531 1531 1532 1532 1532 1532 1532 1533 1533 1534 1534 1535 1535 1536 1537 1538 1539 1540 1541 1541 1542 1542 1543 1543 1544 1544 1545 1545 1545 1545 1544 1544 1544 1545 1545 1545 1544 1544 1544 1544 1544 1544 1543 1543 1543 1543 1542 1542 1542 1543 1543 1543 1544 1544 1543 1543 1544 1545 1545 1545 1544 1544 1545 1545 1545 1545 1545 1545 1545 1545 1545 1545 1545 1545
1525 1525 1525 1526 1526 1527 1528 1528 1528 1528 1529 1529 1529 1530 1530 1529 1530 1530 1530 1531 1531 1532 1533 1533 1534 1535 1535 1536 1537 1538 1539 1539 1540 1540 1541 1542 1542 1543 1543 1543 1543 1542 1542 1542 1542 1543 1543 1543 1543 1543 1542 1542 1542 1542 1542 1541 1541 1541 1541 1541 1541 1541 1542 1542 1542 1542 1543 1543 1544 1544 1544 1543 1543 1544 1543 1543 1544 1543 1544 1544 1544 1544 1544 1544 1544
1523 1523 1524 1524 1524 1525 1526 1526 1526 1526 1527 1527 1527 1527 1527 1527 1528 1528 1528 1529 1529 1530 1531 1531 1532 1533 1533 1534 1535 1535 1536 1536 1537 1538 1539 1539 1540 1540 1541 1541 1541 1541 1540 1541 1541 1541 1541 1541 1541 1540 1540 1540 1540 1540 1540 1540 1540 1540 1540 1540 1540 1539 1540 1540 1540 1540 1541 1542 1542 1542 1542 1542 1542 1543 1542 1542 1543 1543 1543 1543 1543 1543 1543 1544 1544
1521 1521 1522 1522 1522 1523 1523 1524 1524 1524 1524 1524 1524 1525 1525 1525 1526 1526 1526 1526 1527 1527 1528 1528 1529 1530 1531 1532 1533 1533 1533 1534 1535 1535 1536 1537 1537 1538 1538 1538 1538 1539 1539 1539 1539 1539 1539 1538 1538 1537 1537 1538 1538 1538 1539 1539 1539 1539 1538 1538 1538 1538 1537 1537 1537 1538 1539 1540 1541 1541 1541 1541 1541 1541 1541 1542 1542 1542 1542 1543 1543 1544 1544 1544 1545
1519 1520 1520 1520 1520 1520 1521 1521 1522 1522 1522 1522 1522 1522 1522 1523 1523 1523 1524 1524 1524 1525 1525 1526 1527 1528 1529 1529 1530 1530 1531 1531 1532 1533 1533 1534 1535 1535 1536 1536 1536 1536 1536 1536 1536 1536 1536 1535 1535 1534 1534 1535 1535 1536 1538 1538 1538 1537 1537 1536 1536 1537 1536 1536 1536 1536 1537 1538 1538 1539 1539 1539 1539 1540 1541 1541 1541 1542 1542 1543 1543 1544 1545 1546 1546
1517 1517 1518 1518 1518 1518 1519 1519 1520 1520 1520 1520 1520 1520 1520 1520 1521 1521 1521 1521 1522 1522 1523 1523 1524 1525 1526 1526 1527 1528 1528 1529 1529 1530 1531 1531 1532 1532 1533 1533 1533 1533 1533 1533 1533 1533 1533 1532 1532 1531 1531 1532 1532 1533 1535 1536 1535 1535 1535 1534 1534 1535 1535 1534 1534 1534 1535 1535 1536 1537 1537 1537 1537 1538 1539 1540 1541 1541 1542 1542 1543 1545 1546 1547 1548
1515 1515 1515 1515 1515 1515 1516 1517 1517 1518 1518 1518 1518 1518 1518 1518 1518 1518 1518 1519 1519 1520 1520 1520 1521 1522 1523 1523 1524 1525 1525 1526 1526 1527 1528 1528 1529 1529 1530 1530 1530 1530 1530 1530 1530 1530 1530 1529 1529 1528 1528 1528 1528 1529 1532 1533 1533 1533 1533 1532 1531 1531 1531 1531 1531 1531 1532 1532 1533 1534 1534 1534 1534 1536 1538 1539 1540 1540 1541 1542 1544 1545 1546 1547 1549
1513 1512 1512 1513 1513 1513 1513 1514 1514 1515 1515 1515 1515 1515 1515 1515 1515 1515 1515 1516 1517 1517 1517 1517 1518 1519 1520 1520 1521 1521 1522 1522 1523 1524 1525 1525 1525 1526 1527 1527 1527 1527 1527 1527 1527 1527 1527 1526 1526 1525 1525 1524 1523 1524 1528 1530 1529 1529 1529 1528 1528 1528 1528 1528 1528 1528 1528 1529 1529 1530 1531 1530 1531 1533 1535 1537 1539 1540 1541 1543 1544 1545 1546 1548 1550
1511 1511 1510 1510 1511 1511 1511 1511 1512 1512 1512 1512 1512 1513 1513 1513 1513 1513 1513 1513 1514 1514 1514 1514 1516 1517 1517 1517 1517 1518 1518 1519 1520 1521 1521 1522 1522 1523 1523 1523 1523 1523 1524 1524 1524 1523 1523 1523 1522 1522 1522 1521 1520 1521 1524 1526 1525 1524 1525 1525 1525 1525 1524 1524 1525 1525 1525 1526 1526 1526 1527 1527 1528 1530 1532 1535 1538 1540 1541 1542 1544 1545 1546 1548 1550
1510 1509 1509 1509 1509 1508 1509 1509 1509 1509 1509 1509 1509 1509 1510 1510 1510 1510 1511 1511 1511 1512 1512 1512 1513 1514 1514 1514 1514 1515 1516 1516 1517 1518 1518 1519 1519 1519 1520 1520 1520 1520 1521 1521 1520 1520 1520 1520 1519 1519 1519 1519 1518 1519 1520 1521 1521 1520 1521 1520 1520 1520 1520 1521 1521 1520 1520 1522 1523 1524 1525 1527 1528 1530 1532 1533 1536 1539 1541 1543 1544 1545 1547 1548 1550